Weather Roundup
Issued by NWS

Home | Current Version | Previous Version | Text Only | Print | Product List | Glossary On
Versions: 1 2 3 4 5 6 7 8 9 10 11 12 13 14 15 16 17 18 19 20 21 22 23 24 25 26 27 28 29 30 31 32 33 34 35 36 37 38 39 40 41 42 43 44 45 46 47 48 49 50
000
NZUS93 KARX 022110
HRRWXR

CURRENT HOURLY OBSERVATIONS ACROSS
MUCH OF THE UPPER MISSISSIPPI VALLEY
NATIONAL WEATHER SERVICE LA CROSSE WI
400 PM CDT SUN AUG 02 2015


...SOUTHEAST MINNESOTA...


CITY           SKY/WX    TMP DP  RH WIND       PRES   REMARKS
ROCHESTER      SUNNY     83  69  62 NW16G25   29.72R
ROCHESTER/MAYO FAIR      83  64  51 NW21G30   29.70R
WINONA         SUNNY     88  66  48 W15G22    29.65R HX  90
AUSTIN         SUNNY     86  64  48 NW15G24   29.73S
ALBERT LEA     SUNNY     84  64  51 NW10G25   29.74S
DODGE CENTER   MOSUNNY   82  66  57 NW13G22   29.73R
PRESTON        SUNNY     83  65  53 NW15G23   29.72R
OWATONNA       MOSUNNY   82  64  54 NW14G23   29.73S
FARIBAULT      MOSUNNY   82  66  57 NW10G16   29.72S
$$

...ELSEWHERE IN MINNESOTA...


CITY           SKY/WX    TMP DP  RH WIND       PRES   REMARKS
MINNEAPOLIS    MOSUNNY   84  61  45 NW17G24   29.70S
INTNL FALLS    MOSUNNY   72  45  37 W18G30    29.71S
DULUTH         MOSUNNY   74  56  53 NW21G26   29.69R
RED WING       MOSUNNY   84  64  51 N14G23    29.67R
REDWOOD FALLS  SUNNY     82  59  45 NW18G26   29.79R
MANKATO        SUNNY     84  63  48 MISG      29.73S
WORTHINGTON    SUNNY     82  63  51 N13       29.83S
FAIRMONT       SUNNY     84  61  45 NW18      29.77S
$$

...SOUTHWEST WISCONSIN...


CITY           SKY/WX    TMP DP  RH WIND       PRES   REMARKS
LA CROSSE      SUNNY     90  65  43 W18G32    29.62R HX  92
PRAIRIE DU CHI SUNNY     92  67  43 W21G30    29.65S HX  95
BOSCOBEL       SUNNY     93  71  48 W16G26    29.63F HX 100
LONE ROCK      SUNNY     92  68  45 W18G28    29.62F HX  96
PLATTEVILLE    SUNNY     88  72  59 SW21G30   29.68F HX  95
FORT MC COY    MOSUNNY   91  59  35 W22G30    29.61R HX  90
CAMP DOUGLAS   SUNNY     89  67  48 W21G33    29.58R HX  92
VIROQUA        FAIR      88  65  47 W17G33    29.66S HX  90
WIS DELLS      SUNNY     91  63  39 SW21G32   29.59F HX  92
$$

...ELSEWHERE IN WISCONSIN...


CITY           SKY/WX    TMP DP  RH WIND       PRES   REMARKS
MILWAUKEE      MOSUNNY   92  63  38 SW31G44   29.59F HX  93
MADISON        MOSUNNY   89  68  49 SW17G26   29.60F HX  93
GREEN BAY      TSTM      65  63  93 NE23G29   29.55R FOG
EAU CLAIRE     PTSUNNY   82  65  56 NW18G24   29.65R
BLACK RVR FLS  FAIR      88  62  41 NW15G26   29.61R
MEDFORD        MOSUNNY   71  65  80 NW9G17    29.64F
WAUSAU         LGT RAIN  76  62  62 N12G26    29.59R
WIS RAPIDS     PTSUNNY   81  66  60 N9        29.60R
MARSHFIELD     MOSUNNY   82  66  58 NW18G33   29.61R
RICE LAKE      MOSUNNY   77  58  52 NW12G22   29.70R
$$

...NORTHEAST IOWA...


CITY           SKY/WX    TMP DP  RH WIND       PRES   REMARKS
DECORAH        SUNNY     88  66  48 W10G23    29.69S HX  90
MASON CITY     SUNNY     88  67  49 NW13      29.77R HX  91
CHARLES CITY   MOSUNNY   88  73  62 W15G22    29.74R HX  96
OELWEIN        MOSUNNY   88  77  70 W13G18    29.73S HX 100
$$

...ELSEWHERE IN IOWA...


CITY           SKY/WX    TMP DP  RH WIND       PRES   REMARKS
DES MOINES     MOSUNNY   93  71  48 W16G25    29.75F HX 100
IOWA CITY      SUNNY     90  75  61 SW16G24   29.75F HX 100
FORT DODGE     SUNNY     88  73  62 W9        29.79R HX  96
$$

...NORTHERN ILLINOIS...


CITY           SKY/WX    TMP DP  RH WIND       PRES   REMARKS
CHICAGO-OHARE  PTSUNNY   87  72  60 SW18G25   29.71F HX  93
CHICAGO-MIDWAY CLOUDY    91  69  48 SW17G26   29.72F HX  96
MOLINE         MOSUNNY   90  73  57 SW20G25   29.74F HX  98
ROCKFORD       MOSUNNY   90  70  51 SW18G29   29.71F HX  95
PEORIA         SUNNY     93  69  45 W15G24    29.80F HX  98
$$

NOTE: "FAIR" INDICATES FEW OR NO CLOUDS BELOW 12,000 FEET WITH NO
SIGNIFICANT WEATHER AND/OR OBSTRUCTIONS TO VISIBILITY. WIND
SPEEDS ARE IN MILES-PER-HOUR.



USA.gov is the U.S. government's official web portal to all federal, state and local government web resources and services.